sat.trackr.live / text

‹ back to catalog

STARLINK-36345

NORAD 68243 · 2026-054M

PAYLOAD ACTIVE UNKNOWN

§ Identity

Operator
Country
US
Launch date
2026-03-17
Launch site
AFETR
Launch vehicle
Mass (kg)
RCS (m²)

Purposes: comms

External: N2YO · Heavens-Above · Gunter

§ Orbital elements

Epoch: 2026-09-20T00:59:44.031840Z

Period
93.85 min
Inclination
53.1570°
Eccentricity
0.0000904
Mean motion
15.34403729 rev/d
Perigee alt
462.1 km
Apogee alt
463.3 km
Semi-major
6,840.8 km
B*
4.9723e-4
RAAN
103.7154°
Arg perigee
107.3963°
Mean anomaly
252.7138°
Rev number
2,889

§ Raw data

STARLINK-363451 68243U 26054M   26263.04148185  .00016462  00000+0  49723-3 0  99962 68243  53.1570 103.7154 0000904 107.3963 252.7138 15.34403729 28892

JSON: /api/v1/satellites/68243 · /tle

For live sub-satellite position, see the globe view (requires WebGL).

§ Visibility from observer

Set your observer location to see the next 7 days of passes ≥ 10°. The values pass through the URL so the page stays shareable.

No JS? Fill the form by hand. The geolocation button needs JavaScript.